Regional Weather Roundup
Issued by NWS Upton, NY

Current Version | Previous Version | Text Only | Print | Product List | Glossary On
Versions: 1 2 3 4 5 6 7 8 9 10 11 12 13 14 15 16 17 18 19 20 21 22 23 24 25 26 27
000
ASUS41 KOKX 151905
RWROKX

REGIONAL WEATHER ROUNDUP
NATIONAL WEATHER SERVICE NEW YORK NY
300 PM EDT TUE APR 15 2014

NOTE: "FAIR" INDICATES FEW OR NO CLOUDS BELOW 12,000 FEET WITH NO
SIGNIFICANT WEATHER AND/OR OBSTRUCTIONS TO VISIBILITY.

NYZ071-072-176-178-NJZ106-104-152000-
NEW YORK CITY METRO AREA


CITY           SKY/WX    TMP DP  RH WIND       PRES   REMARKS
CENTRAL PARK   LGT RAIN  58  56  93 S6        29.58F
LAGUARDIA APRT CLOUDY    58  55  90 S15G24    29.55F
KENNEDY INTL   LGT RAIN  54  52  93 S24G36    29.59F VSB 1/16
NEWARK/LIBERTY LGT RAIN  66  62  87 S15G22    29.53F
TETERBORO      LGT RAIN  66  60  81 S16       29.52F
$$

NYZ177-179-078>081-152000-
LONG ISLAND NEW YORK

CITY           SKY/WX    TMP DP  RH WIND       PRES   REMARKS
FARMINGDALE    CLOUDY    56  56 100 S28G41    29.59F FOG
ISLIP          LGT RAIN  58  55  90 S25G38    29.59F FOG
SHIRLEY        LGT RAIN  58  56  93 S25G44    29.63F FOG
WESTHAMPTON    CLOUDY    56  54  93 S20G32    29.63F FOG
MONTAUK POINT    N/A     55  53  93 S18G31    29.68F
$$

NYZ052-065-067-152000-
HUDSON VALLEY

CITY           SKY/WX    TMP DP  RH WIND       PRES   REMARKS
WHITE PLAINS   LGT RAIN  56  55  97 S13G24    29.56F VSB 1/4
NEWBURGH       LGT RAIN  61  61 100 S6        29.53F FOG
MONTGOMERY     HVY RAIN  63  61  93 S13       29.49F FOG
POUGHKEEPSIE   LGT RAIN  64  60  87 VRB6      29.50F
ALBANY         LGT RAIN  45  40  82 W13G21    29.57R
$$

NJZ001-105-106-008-010-013-015-019>022-104-152000-
NEW JERSEY

CITY           SKY/WX    TMP DP  RH WIND       PRES   REMARKS
NEWARK/LIBERTY LGT RAIN  66  62  87 S15G22    29.53F
TETERBORO      LGT RAIN  66  60  81 S16       29.52F
CALDWELL       LGT RAIN  66  63  90 S12G20    29.52F
MORRISTOWN     CLOUDY    66  63  88 S12G21    29.53F
SOMERVILLE     NOT AVBL
LINDEN         LGT RAIN  67  62  84 S13G20    29.55F
SUSSEX         FOG       64  60  87 VRB5      29.51F VSB 1
ANDOVER          N/A     61  61 100 CALM      29.52F
TRENTON        CLOUDY    67  62  84 S16G26    29.51F
MILLVILLE      CLOUDY    61  59  93 S12G23    29.59S
ATLANTIC CITY  CLOUDY    60  58  92 S22G33    29.61S
WRIGHTSTOWN    LGT RAIN  64  63  97 S16G23    29.53F
TOMS RIVER     CLOUDY    63  59  88 S16G24    29.59R
BELMAR         CLOUDY    63  57  82 S16G30    29.58S
$$

PAZ047>061-062-071-152000-
EASTERN PENNSYLVANIA

CITY           SKY/WX    TMP DP  RH WIND       PRES   REMARKS
PHILADELPHIA   CLOUDY    69  59  70 S20       29.54R
ALLENTOWN      RAIN      55  50  83 NW21G33   29.55R
SCRANTON       RAIN      43  40  89 NW15G22   29.66S FOG
$$

CTZ002-004>006-009-010-012-RIZ004-006-007-MAZ004-011-015-152000-
SOUTHERN NEW ENGLAND
 IN CT

CITY           SKY/WX    TMP DP  RH WIND       PRES   REMARKS
BRADLEY INTL   LGT RAIN  62  59  90 S20G37    29.55F FOG
HARTFORD       LGT RAIN  62  59  90 S20G33    29.57F
DANBURY        LGT RAIN  59  57  93 S15G28    29.57F FOG
WTRBRY/OXFORD  LGT RAIN  61  55  82 S18G29    29.61F FOG
BRIDGEPORT     LGT RAIN  58  56  93 SW24G36   29.60S FOG
MERIDEN        LGT RAIN  60  57  89 S25G40    29.61S
NEW HAVEN      LGT RAIN  59  56  89 S18G33    29.61F FOG
CHESTER        CLOUDY    57  57 100 S21G32    29.63F FOG
GROTON         LGT RAIN  54  54 100 S29G40    29.63F FOG
WILLIMANTIC    RAIN      62  59  90 S16G30    29.61F FOG

 IN RI

CITY           SKY/WX    TMP DP  RH WIND       PRES   REMARKS
PROVIDENCE     RAIN      60  57  89 S32G47    29.67F FOG
BLOCK ISLAND   CLOUDY    54  50  87 S29G40    29.69F
WESTERLY       LGT RAIN  53  52  96 S18G32    29.67F FOG

 IN MA

CITY           SKY/WX    TMP DP  RH WIND       PRES   REMARKS
BOSTON         LGT RAIN  62  58  86 S30G47    29.64F FOG
WORCESTER      RAIN      59  58  96 S26G38    29.60F FOG
WESTFIELD      LGT RAIN  63  59  87 S24G40    29.52F
PROVINCETOWN   CLOUDY    57  52  82 MISG      29.74F
NANTUCKET      CLOUDY    57  49  74 S22G31    29.79F
$$

ANZ330-335-338-340-345-350-353-355-152000-
COASTAL MARINE OBSERVATIONS


STATION/POSITION TIME  SKY/WX   TEMP    WIND        PRES    VSBY  WAVE
                                AIR SEA DIR/SP/G                  HT/PER
                 (UTC)          (F)     (DEG/KT/KT) (MB)    (MI)  (FT/S)
NY HARB ENTRANCE 1900            52 43  180/ 25/ 31 1000.8
4S FIRE IS       1800               46                N/A          10/ 7
23SW MTP         1900            52 43  180/ 23/ 29 1004.3          9/ 9
HUDSON CANYON    1800            54 46  180/ 23/ 27 1006.2         10/ 9
EXECUTION ROCKS  1900            55 43  190/ 25/ 39   N/A
WESTERN LI SOUND 1900            56     190/ 25/ 35   N/A           3/ 3
CENTRAL LI SOUND 1800            54 42  190/ 27/ 35   N/A           5/ 4
EASTERN LI SOUND NOT AVBL
ROBBINS REEF     1900            59     160/ 20/ 21   N/A
$$


>>>>>>>>>>>>>>>>>>>>>>>>>>>> KEY <<<<<<<<<<<<<<<<<<<<<<<<<<<
>                                                          <
>     SKY/WX - SKY CONDITION/PRESENT WEATHER               <
>     TMP    - TEMPERATURE IN FAHRENHEIT                   <
>     DP     - DEWPOINT IN FAHRENHEIT                      <
>     RH     - RELATIVE HUMIDITY IN PERCENT                <
>     WIND   - DIRECTION AND SPEED IN MPH                  <
>     PRES   - MEAN SEA LEVEL PRESSURE IN INCHES OF HG     <
>     WCI    - WIND CHILL INDEX                            <
>     VSB    - VISIBILITY IN MILES                         <
>     HX     - HEAT INDEX                                  <
>     TC     - TEMPERATURE IN CELSIUS                      <
>     VRB    - VARIABLE WIND DIRECTION                     <
>                                                          <
>>>>>>>>>>>>>>>>>>>>>>>>>>>> KEY <<<<<<<<<<<<<<<<<<<<<<<<<<<





USA.gov is the U.S. government's official web portal to all federal, state and local government web resources and services.